Presure
193 181 194 180 199 183 194 195 206 195 211 216 182 125 196 198 166 191 195 179 189 202 124 176 184 139 140 150 159 166 160 159 181 191 180 161 158 146 165 170 148 179 170 182 175
201 186 191 200 190 207 205 224 209 206 212 226 256 214 225 180 237 155 169 190 199 200 197 171 202 195 176 144 141 162 143 174 160 175 184 186 178 175 175 138 139 184 187 187 181
196 207 185 213 215 183 203 221 228 207 203 259 239 230 237 187 181 226 249 114 201 173 210 191 196 197 217 172 162 140 150 165 139 164 161 185 186 182 182 159 151 179 191 192 201
202 198 204 209 212 208 239 236 253 231 249 156 225 239 223 228 205 220 236 234 139 158 198 221 217 194 246 177 198 151 140 148 172 137 168 159 176 189 187 188 178 181 178 185 162
195 201 203 211 213 233 258 260 240 274 289 251 313 261 202 233 264 230 221 217 212 125 217 240 250 198 192 181 186 202 174 160 150 153 165 133 167 129 168 192 195 152 189 149 154
205 199 201 208 227 245 235 265 251 253 324 248 268 313 302 389 387 288 249 246 229 255 244 223 223 227 213 192 222 198 198 163 182 146 157 177 133 127 141 140 160 189 189 148 186
201 202 209 231 257 266 242 254 269 267 271 277 269 285 258 253 252 275 383 359 345 234 264 245 254 255 232 221 211 228 194 201 205 144 170 154 158 162 153 160 134 138 127 132 143
211 217 234 251 249 274 276 260 269 258 272 252 279 283 272 265 267 254 255 259 357 350 269 324 211 235 225 213 206 195 226 205 200 208 206 158 153 164 145 132 138 138 132 133 131
208 249 249 245 254 248 251 268 263 279 307 315 321 374 408 378 262 276 255 266 260 266 258 272 197 197 229 226 243 252 234 222 205 166 198 207 185 144 192 168 138 117 132 125 146
235 250 265 269 279 246 268 271 294 343 389 394 370 430 419 316 372 323 282 257 258 254 305 246 289 318 229 232 261 252 250 242 241 209 210 201 201 167 196 179 187 151 157 124 120
216 260 284 290 234 273 272 293 332 359 352 351 432 454 336 377 380 351 390 395 222 263 271 257 229 258 294 264 255 226 236 238 241 238 216 212 208 194 204 208 156 188 197 129 133
255 291 258 231 280 273 296 312 384 416 417 382 396 415 335 357 380 372 360 388 344 323 258 262 253 249 308 263 199 233 242 252 247 232 242 225 214 125 197 192 193 207 203 213 197
259 253 234 278 278 283 294 346 413 366 353 337 335 358 380 315 341 351 344 379 370 355 295 257 254 281 247 239 316 294 286 260 258 268 247 240 230 218 219 175 215 217 154 160 209
268 226 271 275 271 289 316 403 359 371 397 379 281 315 378 295 308 352 331 321 374 379 379 276 262 256 245 247 352 237 337 330 331 239 238 273 241 232 217 214 141 223 166 207 145
261 298 273 280 294 307 413 359 351 416 295 373 354 275 342 377 326 301 334 330 344 353 356 348 319 282 273 255 243 244 336 332 332 328 241 248 250 242 240 256 250 235 239 239 225
243 290 278 287 291 376 373 353 389 390 367 355 345 332 328 334 374 308 292 295 329 347 347 344 330 333 295 300 277 257 246 243 334 338 217 230 338 262 254 219 255 241 250 239 238
247 262 289 301 304 389 338 338 324 377 356 350 338 330 322 318 337 361 310 271 329 325 341 340 334 339 289 308 302 278 261 253 275 224 269 276 259 296 325 264 210 322 313 243 249
267 279 272 291 311 345 339 365 371 354 354 339 326 317 315 322 324 342 341 300 285 318 318 324 330 328 333 332 313 289 281 299 289 258 220 213 254 254 253 258 242 343 274 338 241
257 284 287 297 315 344 382 354 352 347 335 324 306 386 380 382 331 326 336 351 287 263 267 315 313 308 318 325 325 324 322 324 325 291 286 290 291 282 279 272 263 264 274 280 317
267 286 297 302 361 384 370 345 349 337 324 306 355 374 365 368 398 309 313 321 325 292 274 273 293 287 302 303 315 316 317 321 324 326 323 320 301 324 327 329 287 265 241 266 268
273 281 324 293 391 308 352 337 348 331 314 305 386 364 360 349 360 348 328 300 313 321 300 275 265 264 270 309 305 304 301 305 305 309 308 308 312 314 322 333 338 341 341 323 343
272 301 320 372 322 359 338 328 348 330 306 380 408 354 330 334 330 317 320 330 303 303 315 312 295 277 273 306 306 299 299 301 302 305 299 299 312 307 305 306 301 336 338 341 331
282 307 299 343 338 334 328 323 330 325 305 377 374 363 322 335 321 311 314 300 323 302 295 317 306 295 288 299 303 297 302 304 304 304 310 311 305 312 317 324 322 330 322 310 314
280 301 329 355 350 332 325 324 320 325 322 367 350 381 326 318 321 312 316 315 314 319 331 315 308 298 286 289 294 274 294 286 303 307 305 307 309 308 315 319 301 302 308 316 326
283 304 334 369 351 350 357 341 316 314 381 364 347 342 347 326 323 329 303 329 318 324 304 324 312 302 291 284 264 251 260 262 306 300 296 294 302 297 326 342 326 303 325 320 342
283 291 346 375 347 339 364 343 318 307 373 356 355 330 343 368 329 304 324 317 319 295 296 305 326 306 295 287 275 271 267 294 292 293 284 297 279 274 313 323 322 321 343 345 332
291 297 373 358 365 368 391 329 325 353 367 351 347 355 351 358 343 325 303 301 308 313 334 323 312 315 302 296 285 273 266 287 275 268 282 286 307 326 316 322 338 336 321 315 305
Wind_Speed
64 66 71 68 75 72 77 78 83 83 85 87 82 71 77 87 80 81 91 89 89 89 67 87 88 67 67 67 70 71 68 70 78 77 67 60 61 62 64 63 56 59 54 57 48
68 74 77 80 81 82 84 93 92 87 87 92 90 82 86 87 74 83 87 90 96 93 94 82 94 88 87 68 64 72 66 82 67 68 73 73 70 68 69 55 56 62 64 65 60
74 77 82 83 86 80 86 91 88 92 87 86 89 85 80 92 88 78 87 62 95 87 88 97 90 96 81 88 82 65 71 75 60 70 64 74 75 73 72 63 58 61 66 62 66
77 80 86 89 94 89 99 93 94 87 88 70 88 89 81 79 84 79 81 83 82 79 101 95 97 96 86 87 96 73 73 66 81 62 75 65 74 78 75 74 67 67 61 62 55
79 85 91 98 94 101 103 96 85 96 96 78 86 79 82 86 87 91 88 95 100 72 101 87 82 104 98 91 92 98 94 77 70 68 75 60 69 54 72 77 76 61 69 57 56
92 93 95 94 101 107 89 101 88 85 74 78 78 78 79 62 65 87 93 88 103 99 90 100 100 96 106 97 98 99 100 82 91 69 70 78 60 59 70 55 57 72 72 59 68
95 98 102 110 114 106 99 95 84 79 78 79 78 73 70 75 73 74 67 75 82 90 97 97 92 97 96 108 104 98 101 104 103 72 84 69 68 73 68 65 56 60 56 54 55
102 109 115 113 104 94 84 86 78 81 77 81 75 73 68 73 73 71 74 75 72 76 91 86 103 103 99 86 108 99 95 110 107 107 103 75 74 76 68 60 61 64 62 60 57
98 110 106 107 102 94 85 75 77 75 71 71 69 65 54 52 72 73 71 74 74 76 79 77 91 89 103 100 91 94 98 112 113 84 96 102 93 70 91 76 65 53 64 56 64
110 106 94 99 90 90 76 72 74 68 59 57 60 53 50 57 50 66 72 73 73 70 74 74 79 87 96 95 92 96 99 98 103 114 112 102 98 83 94 84 85 67 68 60 48
101 104 89 86 98 79 70 73 69 59 59 64 47 39 50 48 50 58 44 49 73 71 72 76 80 70 97 96 93 100 95 99 100 108 117 114 108 93 96 96 74 86 85 65 64
104 89 89 92 80 76 77 74 64 53 37 45 42 35 43 42 44 46 49 45 56 66 74 70 68 76 66 91 75 92 92 98 100 111 109 119 112 60 96 90 91 94 90 95 88
93 86 91 81 79 80 77 70 54 51 44 45 42 35 31 35 38 45 49 38 46 56 65 67 68 68 69 70 72 79 92 97 95 94 99 107 116 110 110 85 101 102 76 74 90
93 89 84 80 79 79 76 55 53 48 34 27 37 33 24 35 38 41 47 47 34 38 43 65 71 70 69 68 58 86 69 75 79 101 99 85 108 111 106 97 64 112 77 98 68
93 94 87 84 79 78 56 55 52 36 41 25 27 37 29 20 37 39 45 45 39 38 39 42 56 65 67 69 71 71 62 68 70 71 93 96 95 106 103 103 109 110 111 111 104
88 94 89 85 80 68 57 54 45 31 28 27 25 29 29 27 22 41 41 39 40 37 38 44 50 50 58 63 66 69 70 72 61 61 89 82 74 89 89 91 100 101 108 107 107
90 90 91 82 80 60 62 57 49 30 28 24 24 25 25 27 26 31 41 41 39 38 36 37 41 41 57 54 60 64 66 67 63 71 65 70 70 65 73 85 76 87 86 104 105
97 94 90 84 81 67 60 44 34 31 24 23 24 25 24 24 28 29 35 41 41 39 40 40 38 39 40 43 52 59 58 54 56 66 82 69 63 69 74 74 69 69 79 74 103
95 96 90 86 77 65 43 41 34 27 23 25 23 15 17 19 26 27 26 33 43 41 41 42 40 42 38 37 40 39 40 43 44 55 60 60 61 65 68 67 69 69 69 69 61
98 94 87 84 66 50 41 40 30 27 24 24 16 10 13 8 10 29 31 32 37 43 43 41 41 42 41 42 37 37 39 38 37 38 41 44 57 47 49 51 59 63 61 68 69
100 91 86 82 52 64 42 40 31 26 23 24 15 8 10 17 18 21 29 33 34 37 44 45 46 46 43 38 40 40 42 41 41 41 45 46 45 47 44 42 44 48 49 52 48
101 90 84 64 67 43 42 40 33 26 23 8 11 20 22 28 32 31 32 30 38 39 39 48 45 46 43 38 38 39 38 39 40 40 45 46 38 43 45 42 42 41 39 36 36
98 91 84 70 61 53 43 38 33 26 23 6 9 29 27 35 31 32 33 31 35 41 40 39 40 43 41 37 36 36 36 36 34 35 33 37 39 39 35 33 30 29 27 30 31
97 88 81 66 55 51 44 36 32 27 28 7 13 17 31 29 31 28 33 32 33 36 32 38 40 41 40 37 35 36 34 33 29 29 33 30 29 27 28 25 24 25 27 28 28
95 89 79 58 55 48 38 31 30 26 11 12 17 21 42 36 34 44 21 39 31 33 26 33 39 40 38 35 39 41 35 33 26 30 27 24 22 19 23 22 23 24 21 21 20
94 88 75 56 52 46 34 27 28 24 12 14 16 22 25 34 41 23 40 27 31 24 24 29 33 40 37 36 36 35 35 27 27 25 19 19 19 24 23 18 20 19 16 16 16
93 88 63 56 49 40 25 25 26 12 13 13 16 17 21 28 44 40 29 27 26 25 29 31 31 36 35 33 34 36 34 27 21 18 17 16 17 20 19 18 18 20 22 21 18
Wind_Direction
290 288 287 285 282 279 279 279 279 275 274 274 266 256 268 253 257 258 251 254 251 248 254 250 249 249 247 250 249 247 250 248 246 246 242 239 237 244 242 244 235 249 247 256 246
284 292 289 287 285 289 285 288 284 281 279 281 280 270 268 257 266 255 258 253 246 248 248 248 245 246 247 246 246 249 249 247 249 247 244 242 240 240 242 243 242 248 251 252 251
292 294 290 294 292 286 287 291 290 280 278 285 274 272 270 253 260 257 267 256 248 252 246 248 246 247 246 248 251 242 245 248 245 249 246 245 243 241 241 245 237 243 250 252 253
300 296 298 295 296 289 300 296 295 280 283 276 269 270 264 259 256 257 256 248 251 250 248 241 238 248 247 246 245 245 244 243 248 244 249 245 243 243 242 241 240 243 241 246 238
298 300 298 301 298 302 304 304 292 294 286 282 275 273 261 262 265 251 244 245 245 254 243 246 251 245 246 247 247 245 248 246 242 243 246 236 247 238 242 242 240 244 243 240 239
307 303 299 299 301 304 304 306 293 296 288 283 280 275 271 268 264 257 251 252 249 254 243 241 239 237 239 250 239 243 245 242 244 240 242 243 236 237 241 234 239 239 240 243 239
304 301 301 303 305 306 306 303 296 291 288 282 282 274 273 267 263 261 252 250 248 247 250 247 246 245 234 236 241 236 247 245 244 238 243 238 240 243 241 240 231 237 241 244 245
306 306 305 304 308 305 300 297 294 290 287 286 279 274 270 265 264 263 258 254 246 245 249 243 244 237 236 237 245 249 235 242 247 243 243 239 240 240 238 236 229 231 238 240 240
305 306 305 304 306 305 304 299 295 294 294 288 284 279 272 261 260 256 256 254 251 250 247 244 250 251 237 238 237 240 233 235 244 242 245 244 243 233 245 242 233 232 234 237 243
309 308 309 302 305 304 303 303 305 304 299 291 283 278 265 264 253 255 248 249 249 246 245 245 244 238 245 242 241 237 233 232 237 242 244 246 245 240 243 241 243 235 236 240 235
308 314 316 315 307 307 308 312 308 307 300 292 291 283 279 261 246 252 247 239 254 246 245 244 233 244 233 236 234 236 232 232 232 235 241 242 245 244 247 249 237 243 245 237 241
314 324 313 310 315 313 319 316 314 314 313 290 290 289 275 260 244 239 243 239 240 240 241 242 241 239 239 237 243 237 235 239 235 236 235 240 244 234 246 245 246 248 245 251 248
319 313 311 321 320 322 321 317 317 309 306 294 290 285 281 269 250 240 242 233 229 232 242 239 238 240 238 247 238 236 242 243 238 239 236 237 240 246 247 243 250 251 234 241 250
326 313 322 324 323 323 322 321 314 314 305 288 284 279 281 264 256 231 240 242 234 230 233 237 238 237 235 237 233 236 236 237 237 240 237 243 241 242 248 250 234 252 243 249 239
323 329 325 326 326 326 324 318 316 316 303 287 270 278 272 268 244 252 232 238 233 228 228 226 234 239 239 238 233 237 236 237 237 239 240 240 240 242 244 240 243 248 248 249 253
319 328 326 325 328 327 327 322 322 314 300 288 274 268 266 261 237 241 245 242 239 228 225 228 229 230 236 237 239 237 236 236 240 240 244 246 243 244 248 247 245 248 245 249 251
322 325 327 328 331 327 328 325 322 319 305 291 277 268 263 258 251 227 235 239 228 230 225 224 225 225 235 234 235 238 237 238 238 239 234 238 237 240 246 249 249 249 248 246 245
326 328 329 329 333 330 329 329 323 319 311 291 281 279 271 256 245 234 223 230 235 226 224 220 218 223 225 225 232 238 239 239 240 239 236 243 245 233 237 240 244 250 250 251 246
327 330 330 331 332 331 332 330 324 319 308 297 296 255 245 231 225 228 222 213 231 227 227 221 221 227 223 223 225 228 232 234 237 240 242 243 245 245 246 245 242 243 245 245 253
330 331 330 331 332 330 330 330 327 318 310 301 279 238 241 269 195 217 217 211 212 224 225 223 221 226 228 228 224 225 229 230 231 231 235 238 244 245 247 250 251 245 245 246 246
331 332 334 332 330 330 328 330 326 320 312 305 230 174 161 150 154 174 207 215 210 211 220 223 220 223 227 224 225 227 230 231 234 235 238 240 244 249 253 255 255 254 254 251 256
331 332 334 334 332 329 329 330 327 324 312 276 221 162 189 170 170 192 204 202 212 210 207 214 218 226 225 222 223 226 230 233 236 236 241 245 250 253 256 257 254 257 258 257 254
331 334 333 335 331 332 327 328 327 317 316 238 214 174 202 180 193 204 196 220 215 214 218 216 213 218 222 222 221 225 228 232 237 241 242 247 254 259 260 256 254 253 248 245 245
332 334 334 334 330 327 324 322 322 313 318 229 199 199 204 206 205 209 214 222 226 223 210 213 211 215 218 219 220 221 230 234 236 235 240 248 254 259 259 252 230 230 231 237 241
332 333 334 332 330 326 322 315 317 314 242 223 204 193 198 203 210 204 218 214 224 218 225 214 212 214 216 215 213 213 216 219 228 237 244 256 254 243 251 242 232 226 224 226 222
332 332 333 331 330 327 322 313 314 314 225 227 215 209 203 216 208 206 217 224 231 212 226 225 212 215 213 212 211 213 214 225 233 237 242 243 214 216 231 219 213 211 191 170 161
332 332 332 331 329 324 315 311 315 284 228 230 234 227 217 209 207 209 210 208 218 220 222 217 220 215 215 212 209 208 210 221 221 207 224 225 224 214 204 192 171 158 150 147 147